Location: Cheadle
(51.0146°N, 113.5417°W)
Time: 21:59:50
(UTC+00:00)

Envisat - Pass Details

Date: 04 June 2023
Orbit: 763 x 764 km, 98.2° (Epoch: 22 September)

Event Time Altitude Azimuth Distance (km) Brightness Sun altitude
Rises 10:08:55 0° 27° (NNE) 3,241 8.4 -8.9°
Reaches altitude 10° 10:12:05 10° 48° (NE) 2,310 7.1 -8.6°
Maximum altitude 10:15:18 17° 87° (E) 1,879 5.6 -8.3°
Drops below altitude 10° 10:18:31 10° 127° (SE) 2,299 5.5 -8.0°
Sets 10:21:39 0° 148° (SSE) 3,220 6.0 -7.7°
